This is the latest recevied weather packets stored in our database for station/object WD9U. If no packets are shown the sender has not sent any weather packets the latest 1 day(s).
| Time | Temp. | Humidity | Pressure | Rain* | Wind** | Luminosity | Snow |
|---|---|---|---|---|---|---|---|
| 1778093117 | 5.56° C | 47% | 1014.9 hPa | 0 mm | - | 230 W/m² | - |
| 1778089516 | 5.56° C | 48% | 1015 hPa | 0 mm | - | 206 W/m² | - |
| 1778087116 | 5° C | 47% | 1015.3 hPa | 0 mm | - | 234 W/m² | - |
| 1778085915 | 5° C | 47% | 1015.2 hPa | 0 mm | - | 244 W/m² | - |
| 1778082912 | 4.44° C | 49% | 1015.5 hPa | 0 mm | - | 628 W/m² | - |
| 1778081832 | 3.89° C | 49% | 1015.5 hPa | 0 mm | - | 274 W/m² | - |
| 1778080032 | 3.89° C | 53% | 1015.4 hPa | 0 mm | - | 310 W/m² | - |
| 1778077871 | 3.33° C | 58% | 1015.6 hPa | 0 mm | - | 181 W/m² | - |
| 1778076791 | 3.33° C | 58% | 1015.4 hPa | 0 mm | - | 232 W/m² | - |
| 1778075711 | 2.78° C | 58% | 1015.4 hPa | 0 mm | - | 284 W/m² | - |
| 1778075351 | 2.78° C | 58% | 1015.4 hPa | 0 mm | - | 248 W/m² | - |
| 1778074991 | 2.78° C | 58% | 1015.4 hPa | 0 mm | - | 228 W/m² | - |
| 1778074631 | 2.78° C | 59% | 1015.3 hPa | 0 mm | - | 216 W/m² | - |
| 1778074271 | 2.78° C | 58% | 1015.3 hPa | 0 mm | - | 188 W/m² | - |
| 1778073911 | 2.78° C | 58% | 1015.2 hPa | 0 mm | - | 156 W/m² | - |
| 1778073551 | 2.78° C | 58% | 1015.3 hPa | 0 mm | - | 159 W/m² | - |
| 1778073191 | 2.78° C | 57% | 1015.2 hPa | 0 mm | - | 154 W/m² | - |
| 1778072831 | 2.78° C | 58% | 1015.2 hPa | 0 mm | - | 148 W/m² | - |
| 1778072471 | 2.22° C | 58% | 1015.2 hPa | 0 mm | - | 136 W/m² | - |
| 1778071751 | 2.22° C | 58% | 1015.1 hPa | 0 mm | - | 114 W/m² | - |
| 1778071391 | 2.22° C | 59% | 1015 hPa | 0 mm | - | 110 W/m² | - |
| 1778071031 | 2.22° C | 58% | 1015 hPa | 0 mm | - | 104 W/m² | - |
| 1778070671 | 2.22° C | 58% | 1014.9 hPa | 0 mm | - | 97 W/m² | - |
| 1778070311 | 2.22° C | 59% | 1014.9 hPa | 0 mm | - | 92 W/m² | - |
| 1778069951 | 2.22° C | 60% | 1014.8 hPa | 0 mm | - | 90 W/m² | - |
* Rain latest hour (hover to see other rain measurements)
** Current wind speed in m/s (hover to see current wind gust speed)